TimeCST,TemperatureF,Dew PointF,Humidity,Sea Level PressureIn,VisibilityMPH,Wind Direction,Wind SpeedMPH,Gust SpeedMPH,PrecipitationIn,Events,Conditions,WindDirDegrees,DateUTC
12:55 AM,54.7,53.4,96,30.28,10.0,NE,3.5,-,N/A,,Partly Cloudy,40,2013-01-27 06:55:00
1:55 AM,53.8,52.7,96,30.29,10.0,NNE,4.6,-,N/A,,Partly Cloudy,20,2013-01-27 07:55:00
2:55 AM,53.2,52.2,96,30.29,10.0,NNE,5.8,-,N/A,,Partly Cloudy,20,2013-01-27 08:55:00
3:55 AM,51.6,50.4,95,30.29,10.0,NE,4.6,-,N/A,,Clear,40,2013-01-27 09:55:00
4:55 AM,54.5,52.2,92,30.28,10.0,ENE,3.5,-,N/A,,Clear,60,2013-01-27 10:55:00
5:55 AM,53.1,51.1,93,30.29,10.0,ENE,2.3,-,N/A,,Clear,60,2013-01-27 11:55:00
6:55 AM,53.1,48.0,83,30.30,10.0,East,4.6,-,N/A,,Partly Cloudy,80,2013-01-27 12:55:00
7:55 AM,54.5,45.7,72,30.31,10.0,ENE,4.6,-,N/A,,Partly Cloudy,70,2013-01-27 13:55:00
8:55 AM,57.2,45.0,64,30.33,10.0,ENE,4.6,-,N/A,,Partly Cloudy,70,2013-01-27 14:55:00
9:55 AM,61.5,48.2,62,30.34,10.0,Variable,3.5,-,N/A,,Partly Cloudy,0,2013-01-27 15:55:00
10:55 AM,64.8,51.6,62,30.34,7.0,SE,6.9,-,N/A,,Partly Cloudy,130,2013-01-27 16:55:00
11:55 AM,68.0,53.2,59,30.31,7.0,SSE,6.9,-,N/A,,Mostly Cloudy,150,2013-01-27 17:55:00
12:55 PM,68.9,54.5,60,30.28,7.0,SSE,9.2,-,N/A,,Mostly Cloudy,160,2013-01-27 18:55:00
1:55 PM,69.3,55.6,62,30.27,7.0,SSE,5.8,-,N/A,,Mostly Cloudy,160,2013-01-27 19:55:00
2:57 PM,68.4,55.9,64,30.27,7.0,SSW,5.8,-,N/A,,Mostly Cloudy,210,2013-01-27 20:57:00
3:55 PM,68.2,56.7,67,30.28,10.0,South,8.1,-,N/A,,Mostly Cloudy,190,2013-01-27 21:55:00
4:55 PM,65.3,57.7,76,30.28,10.0,SSW,4.6,-,N/A,,Mostly Cloudy,210,2013-01-27 22:55:00
5:55 PM,63.5,56.7,78,30.29,10.0,Calm,Calm,-,N/A,,Mostly Cloudy,0,2013-01-27 23:55:00
6:55 PM,62.2,57.7,85,30.30,10.0,Calm,Calm,-,N/A,,Mostly Cloudy,0,2013-01-28 00:55:00
7:55 PM,62.1,57.6,85,30.31,7.0,Calm,Calm,-,N/A,,Mostly Cloudy,0,2013-01-28 01:55:00
8:55 PM,63.5,58.3,83,30.29,10.0,East,2.3,-,N/A,,Mostly Cloudy,80,2013-01-28 02:55:00
9:55 PM,59.5,57.6,93,30.29,6.0,Calm,Calm,-,N/A,,Partly Cloudy,0,2013-01-28 03:55:00
10:55 PM,60.3,58.8,95,30.29,5.0,ESE,2.3,-,N/A,,Scattered Clouds,110,2013-01-28 04:55:00
11:55 PM,60.3,58.8,95,30.29,6.0,NNE,2.3,-,N/A,,Mostly Cloudy,30,2013-01-28 05:55:00